Observations for Trim Market St
| Time | AQI | Temp °C | Hum % | Pres Pa | CO μg/m³ | H₂S μg/m³ | NO μg/m³ | NO₂ μg/m³ | O₃ μg/m³ | SO₂ μg/m³ | PM1 μg/m³ | PM2.5 μg/m³ | PM10 μg/m³ |
|---|---|---|---|---|---|---|---|---|---|---|---|---|---|
| Sunday 16 August 2026 | |||||||||||||
| 09:06 | 2 | 17.2 | 72 | 52,194 | 0.41 | 0 | 1.55 | 13.29 | 65.45 | 0 | 2.85 | 3.93 | 7.53 |
| 09:03 | 2 | 17 | 72 | 52,254 | 0.38 | 0 | 1.93 | 13.29 | 56.13 | 0 | 1.43 | 3.44 | 5.69 |
| 09:02 | 2 | 17 | 72 | 52,262 | 0.35 | 0 | 1.93 | 11.45 | 46.51 | 0 | 2.85 | 4.4 | 6.92 |
| 09:01 | 2 | 16.9 | 72 | 52,099 | 0.34 | 0 | 2.22 | 9.12 | 43.56 | 0 | 2.14 | 3.43 | 5.69 |
| 09:00 | 2 | 16.9 | 72 | 51,837 | 0.36 | 0 | 2.27 | 10.9 | 49.82 | 0 | 2.85 | 4.39 | 7.53 |
| 08:59 | 2 | 16.9 | 72 | 51,605 | 0.35 | 0 | 2.13 | 11.48 | 53.96 | 0 | 1.43 | 3.9 | 6.31 |
| 08:58 | 2 | 16.8 | 73 | 51,390 | 0.35 | 0 | 2.28 | 10.75 | 48.42 | 0 | 2.14 | 4.38 | 6.92 |
| 08:57 | 2 | 16.8 | 73 | 51,150 | 0.35 | 0 | 2.24 | 8.18 | 48.59 | 0 | 1.43 | 2.93 | 5.08 |
| 08:56 | 2 | 16.7 | 73 | 50,893 | 0.35 | 0 | 2.24 | 11.31 | 56.32 | 0 | 2.14 | 3.89 | 6.31 |
| 08:55 | 2 | 16.7 | 73 | 50,668 | 0.34 | 0 | 2.3 | 11.6 | 57.31 | 0 | 2.85 | 4.37 | 7.53 |
| 08:54 | 2 | 16.6 | 73 | 50,450 | 0.35 | 0 | 2.27 | 15.04 | 58.66 | 0 | 2.85 | 4.36 | 8.14 |
| 08:53 | 2 | 16.6 | 73 | 50,261 | 0.34 | 0 | 2.15 | 11.6 | 51.64 | 0 | 2.14 | 3.88 | 6.92 |
| 08:52 | 2 | 16.5 | 73 | 50,001 | 0.34 | 0 | 2.23 | 10.19 | 50.5 | 0 | 2.14 | 4.36 | 6.92 |
| 08:51 | 2 | 16.5 | 73 | 49,661 | 0.36 | 0 | 2.26 | 10.21 | 49.03 | 0 | 2.85 | 3.39 | 5.71 |
| 08:50 | 2 | 16.4 | 73 | 49,241 | 0.34 | 0 | 2.29 | 11.19 | 63.53 | 0 | 2.14 | 3.87 | 6.31 |
| 08:48 | 2 | 16.3 | 73 | 48,922 | 0.36 | 0 | 2.26 | 13.42 | 59.65 | 0 | 2.85 | 3.87 | 6.31 |
| 08:47 | 2 | 16.3 | 73 | 48,788 | 0.39 | 0 | 2.26 | 12.81 | 54.8 | 0 | 2.85 | 4.34 | 7.53 |
| 08:46 | 2 | 16.2 | 73 | 48,655 | 0.36 | 0 | 2.22 | 12.17 | 59.95 | 0 | 2.85 | 3.86 | 7.53 |
| 08:45 | 2 | 16.2 | 73 | 48,425 | 0.34 | 0 | 1.94 | 9.08 | 42.59 | 0 | 3.56 | 4.82 | 8.14 |
| 08:44 | 2 | 16.1 | 73 | 48,213 | 0.36 | 0 | 2.18 | 12.18 | 63.17 | 0 | 3.56 | 4.34 | 8.14 |